Temperature
21 22 22 23 23 24 23 24 24 24 25 25 24 23 23 23 23 23 23 22 22 20 20 19 19 19 19 19 19 19 19 19 19 18 18 17 17 17 17 17 17 17 17 16
21 22 23 23 23 23 23 23 23 24 24 24 23 22 22 22 21 20 20 20 20 19 19 18 18 18 18 18 18 19 19 19 19 18 18 17 17 16 16 16 16 16 16 16
22 23 23 22 22 22 23 23 24 24 24 24 24 22 22 21 20 19 18 18 18 17 17 17 17 17 17 18 18 18 18 18 18 18 17 17 16 16 16 16 16 16 16 16
22 23 22 22 22 22 23 24 23 23 24 24 24 23 21 21 20 18 17 16 16 16 16 16 16 16 17 17 17 17 17 17 17 17 17 17 16 16 15 15 15 15 15 15
22 23 22 22 23 23 23 24 24 24 24 24 24 24 22 21 19 17 16 15 14 14 14 15 15 15 16 16 16 16 17 17 17 17 16 16 16 15 15 14 14 14 14 14
23 23 23 23 23 23 23 23 23 24 24 23 24 24 22 21 19 17 15 14 13 13 13 13 14 14 15 15 15 15 16 16 16 16 16 15 15 14 14 14 13 13 13 13
22 23 23 23 23 23 23 23 22 22 23 23 24 23 20 19 18 16 14 13 12 12 12 12 13 13 13 14 14 14 14 15 14 15 15 15 14 14 13 13 12 12 12 11
21 21 22 22 22 22 23 23 22 22 23 23 23 22 18 17 16 14 13 12 12 11 11 11 12 12 12 12 13 13 13 13 13 13 13 13 13 13 12 12 11 11 10 10
21 21 22 22 22 23 23 23 24 23 23 23 22 19 17 16 15 14 13 12 11 11 11 11 11 11 11 11 12 12 12 12 12 12 12 12 12 11 11 10 10 9 9 8
21 20 22 22 22 22 23 23 23 23 22 22 21 20 19 16 15 14 13 12 11 10 10 10 10 10 10 10 11 11 11 11 11 11 10 10 10 10 9 9 8 8 7 7
21 20 21 22 21 22 22 22 22 23 23 22 21 20 20 18 16 14 13 11 10 10 9 9 9 9 9 9 9 9 9 9 9 9 9 9 8 8 8 7 7 6 6 6
20 20 20 21 21 21 22 22 22 22 22 22 22 19 18 18 16 14 12 10 10 9 9 8 8 8 8 8 8 8 8 8 8 8 8 7 7 7 6 6 6 6 5 5
20 19 19 20 20 21 21 21 21 22 22 22 22 18 16 16 14 12 11 10 9 8 8 8 8 7 7 7 7 7 7 7 7 7 6 6 6 6 5 5 5 5 5 5
18 19 19 19 19 20 19 20 20 21 21 21 21 17 15 14 13 11 10 9 8 8 7 7 7 7 6 6 6 6 6 6 6 6 6 5 5 5 5 4 4 4 4 4
19 19 19 19 19 19 19 19 19 19 19 19 19 17 15 14 12 11 10 9 8 7 7 7 6 6 6 6 6 6 6 5 5 5 5 5 4 4 4 4 4 4 3 3
19 19 19 18 18 19 18 18 18 18 18 18 17 15 14 12 11 10 9 8 8 7 6 6 6 6 6 6 6 5 5 5 5 5 4 4 4 4 4 4 3 3 3 3
19 18 18 18 18 18 17 16 16 16 16 16 15 14 13 12 11 10 9 8 7 7 6 6 6 6 5 5 5 5 5 5 4 4 4 4 4 4 4 4 3 3 3 3
18 18 19 19 18 16 15 16 16 16 15 15 14 13 12 10 9 9 8 8 7 6 6 6 6 5 5 5 5 5 5 4 4 4 4 4 4 4 3 3 3 3 3 3
18 18 19 19 18 17 16 16 16 15 14 14 13 12 10 9 9 8 7 7 6 6 6 6 5 5 5 5 5 5 4 4 4 4 4 4 4 4 4 3 3 3 3 2
18 18 19 18 18 16 15 16 15 15 14 13 12 11 10 10 10 8 7 6 6 6 5 5 5 5 4 4 4 4 4 4 4 4 4 4 4 4 3 3 3 3 2 2
18 18 18 18 17 16 15 15 15 15 13 12 12 11 10 10 9 7 6 6 6 5 5 5 5 4 4 4 4 4 4 4 4 4 4 4 4 3 3 3 3 3 3 2
18 18 17 17 17 16 14 15 15 13 12 11 11 10 9 8 6 6 6 5 5 5 5 5 4 4 4 4 4 4 4 4 4 4 4 4 4 4 3 3 3 3 2 2
18 17 18 16 15 13 13 13 12 12 11 10 10 9 8 7 6 6 5 5 5 5 4 4 4 4 4 4 4 4 4 4 4 4 4 4 4 4 3 3 3 3 3 3
16 16 17 15 14 13 12 11 11 11 11 10 9 8 7 6 6 5 5 5 5 4 4 4 4 4 4 4 4 4 4 4 4 4 4 4 4 4 3 3 4 3 3 3
17 16 16 15 14 13 12 11 10 10 9 9 8 8 7 6 6 5 5 5 5 5 5 5 5 5 4 4 4 4 4 4 4 4 4 4 4 4 4 4 3 3 2 2
17 17 17 17 15 14 12 10 10 9 9 8 8 7 7 6 6 6 5 5 5 5 5 5 5 5 5 5 4 4 4 4 4 4 5 5 5 4 4 4 3 3 2 2
Wind_Speed
6 9 9 7 8 6 4 6 6 5 3 4 5 4 5 6 6 5 5 5 5 5 4 4 3 4 8 10 12 13 13 13 12 10 10 9 8 6 5 4 3 3 4 4
7 10 6 5 6 8 8 9 7 5 4 4 6 6 7 8 8 8 7 6 6 7 7 6 4 3 5 8 10 11 11 12 12 10 9 7 7 6 5 4 4 2 1 1
10 2 2 6 8 10 10 10 7 6 5 7 8 6 6 8 9 10 10 10 10 9 8 7 6 4 2 3 6 8 10 11 11 11 9 8 6 5 4 4 3 3 3 3
7 5 6 9 9 10 10 8 8 8 10 9 10 7 7 7 8 9 10 11 11 10 10 9 8 7 5 2 2 4 6 8 9 10 11 11 8 6 5 4 4 5 5 5
5 5 8 9 8 9 7 5 8 9 10 8 10 8 7 8 6 8 10 11 11 11 12 11 10 9 8 6 5 4 5 6 7 8 9 9 7 6 6 6 7 7 7 10
7 5 6 7 7 8 7 6 7 9 10 12 10 9 6 5 7 8 9 10 10 11 12 12 12 12 11 10 9 8 8 8 7 7 8 9 9 9 9 9 9 8 7 9
6 6 5 5 7 8 10 10 9 11 11 9 7 6 5 8 9 10 9 9 10 11 11 12 13 13 13 13 11 11 12 12 11 11 11 11 11 11 11 10 10 10 8 9
4 4 3 3 6 6 10 12 9 8 10 8 8 5 7 10 11 11 11 10 11 11 12 13 13 13 13 14 14 14 15 15 14 14 14 13 13 11 11 12 12 12 10 10
4 1 1 1 3 6 7 10 8 7 6 5 6 7 7 9 10 11 10 10 11 11 12 13 14 14 14 15 15 15 16 16 16 16 17 16 16 15 15 15 14 12 10 11
4 4 0 1 5 3 5 4 5 9 8 7 8 9 9 13 11 10 10 10 10 11 12 13 13 14 14 15 15 16 17 18 17 17 16 15 16 16 16 15 16 14 13 12
5 4 2 3 1 1 4 5 5 7 7 7 7 5 5 13 13 12 11 10 11 11 12 12 12 13 14 15 16 16 17 17 17 17 17 17 16 16 16 15 15 13 12 11
3 4 2 1 2 2 1 2 4 7 7 8 5 5 5 9 13 13 13 12 11 12 12 13 13 14 15 15 16 16 16 17 16 16 16 16 15 15 15 14 13 12 11 11
3 3 3 5 5 2 1 2 3 5 6 7 7 6 7 11 13 13 13 13 12 13 13 13 13 13 14 14 15 15 15 15 15 15 16 15 15 14 14 13 11 11 10 10
3 2 3 2 3 2 2 3 3 5 5 5 2 8 9 11 12 12 13 13 13 13 13 13 13 13 13 13 14 14 14 14 14 14 15 14 13 13 12 11 10 10 9 9
2 1 4 5 5 5 6 6 5 4 5 3 2 6 8 9 11 12 13 14 14 13 13 13 13 13 13 13 13 13 13 13 13 13 14 13 12 12 11 11 10 9 8 8
1 1 3 5 5 5 8 9 7 7 6 5 5 6 8 9 10 11 12 14 14 14 14 14 14 13 12 12 12 12 12 12 11 12 12 11 11 11 10 9 8 8 8 7
0 1 2 2 3 3 3 8 7 6 7 5 3 4 8 9 9 10 12 13 14 15 15 14 12 12 11 11 11 11 11 11 11 11 11 10 10 10 9 8 8 7 7 6
1 2 2 1 2 0 5 4 4 4 7 7 6 7 8 9 9 8 10 13 14 14 14 13 12 11 10 10 10 10 10 10 10 10 10 9 9 8 7 7 7 6 5 5
2 2 2 2 1 4 4 2 4 3 4 6 6 9 10 11 11 8 9 12 13 14 13 12 11 11 10 10 10 10 10 9 9 9 8 8 7 7 6 6 6 5 5 5
2 2 2 1 2 2 4 4 3 3 2 4 6 8 9 8 5 6 10 14 14 13 12 11 11 11 10 9 9 10 9 9 8 8 7 6 5 5 6 5 5 4 4 4
1 1 2 1 1 4 5 4 3 3 3 4 4 6 7 4 7 12 14 14 14 14 13 12 11 10 9 8 9 9 8 8 7 6 5 5 4 4 4 4 4 3 3 4
3 2 1 1 1 3 4 2 3 4 5 6 6 8 11 15 17 16 15 15 14 14 13 12 10 9 8 8 8 8 8 7 6 5 4 4 3 2 3 3 3 3 3 2
1 4 3 4 5 6 4 5 5 4 7 7 9 12 16 17 16 15 15 14 13 13 12 11 11 10 8 7 7 7 7 5 4 4 3 3 3 2 2 2 2 2 2 3
4 1 2 4 6 6 6 7 6 7 9 10 12 14 16 17 16 15 14 13 12 12 11 10 10 10 8 7 6 6 5 3 3 2 2 2 1 1 2 2 3 4 4 5
3 4 3 4 7 7 6 7 8 10 12 13 13 14 15 17 16 15 13 13 11 11 10 9 9 9 8 7 7 6 4 2 2 1 1 1 1 2 1 2 4 5 6 6
4 3 3 2 7 6 8 9 10 12 13 14 15 14 14 14 15 14 13 12 11 11 10 9 8 8 7 7 6 4 3 1 0 0 0 0 1 1 1 1 4 5 5 4
Wind_Direction
202 229 229 226 232 261 248 233 206 179 156 177 158 115 66 62 73 79 82 82 85 78 75 88 138 170 174 177 180 182 185 181 182 184 184 182 184 180 175 165 163 190 210 218
216 233 242 239 232 239 236 229 215 195 168 183 143 109 84 67 66 61 62 65 62 61 60 61 72 121 165 175 178 180 182 180 183 183 181 178 169 170 162 123 90 78 104 163
249 270 203 226 219 225 230 233 222 201 184 187 169 150 116 90 76 67 59 56 55 52 51 51 52 59 97 155 176 184 185 183 182 173 168 159 153 151 154 140 117 60 51 61
254 247 230 235 230 231 230 227 233 224 222 202 212 199 143 121 93 69 57 52 49 48 49 47 46 44 47 58 138 159 172 173 172 170 171 168 165 167 157 137 118 79 60 64
247 240 238 242 241 232 243 236 230 227 231 223 212 223 151 145 117 79 61 53 48 46 47 46 41 42 41 45 64 93 114 131 146 154 157 153 148 141 129 120 106 87 68 63
266 250 255 261 249 232 235 225 220 226 223 222 213 221 163 145 124 98 72 59 51 49 48 47 44 45 45 47 55 68 82 86 98 111 118 127 131 133 123 115 103 88 74 65
235 219 220 249 237 208 221 220 207 205 212 212 184 207 110 95 103 104 87 68 57 54 52 49 47 47 47 49 56 64 74 74 78 84 88 97 107 110 108 104 96 90 78 68
254 203 180 233 248 225 216 229 235 225 211 183 177 164 110 102 103 100 92 81 68 60 58 56 54 54 53 55 60 66 71 72 72 77 78 80 86 90 90 88 89 85 80 75
312 333 118 260 257 257 217 228 255 267 247 209 157 124 125 126 117 110 101 90 78 70 65 62 59 58 60 62 63 68 74 74 73 75 77 77 80 84 87 87 85 84 84 82
307 291 272 207 220 211 264 241 233 239 230 221 175 177 171 162 148 129 115 103 94 84 74 68 65 64 65 68 70 71 75 77 77 78 79 81 80 82 85 86 86 86 83 82
302 278 232 201 228 206 211 217 243 247 257 250 206 155 130 160 155 140 124 113 107 96 87 80 76 74 74 74 74 75 76 78 79 80 82 83 83 85 86 86 86 86 83 81
330 286 260 136 86 338 295 285 255 251 240 257 265 108 92 141 140 134 125 116 109 102 96 91 87 83 81 80 80 80 81 82 83 84 85 85 86 86 86 86 87 87 86 82
321 274 242 174 168 149 91 1 295 270 258 252 252 125 102 120 123 124 123 120 114 108 103 97 92 87 85 85 85 85 84 86 89 91 91 90 90 89 89 89 90 90 88 85
292 312 326 3 48 45 65 28 335 280 262 256 266 128 133 132 130 128 126 123 118 112 108 104 98 94 93 92 91 90 89 90 92 92 92 91 90 90 92 92 90 88 87 85
292 57 75 75 79 80 63 41 33 25 355 331 78 125 141 144 141 136 134 129 123 119 115 111 107 103 99 96 94 92 91 92 94 95 94 94 94 94 93 91 89 87 84 81
2 128 128 117 114 101 71 44 41 44 32 42 87 90 108 117 128 132 135 134 129 126 123 118 114 111 106 104 102 100 98 97 98 96 96 97 97 95 93 92 90 84 76 70
18 227 242 170 176 209 72 31 29 42 33 24 49 88 117 117 124 136 138 137 136 133 128 123 119 115 114 113 112 109 107 105 101 99 98 97 96 93 91 89 84 78 71 65
337 287 278 240 214 210 82 49 33 54 58 55 81 103 114 115 109 113 131 133 132 128 125 124 122 118 117 117 116 114 112 109 107 104 101 98 94 89 84 80 75 66 58 51
357 304 298 283 194 115 117 57 4 354 69 66 101 114 114 115 101 86 105 117 122 123 123 123 124 124 124 122 119 115 112 110 109 106 104 101 96 91 81 71 62 53 45 40
80 309 293 303 305 63 80 30 344 276 129 92 113 130 137 144 131 115 117 116 116 116 118 120 122 124 123 123 124 120 116 112 108 109 107 103 94 82 71 63 52 49 40 34
351 20 11 1 50 86 46 346 283 287 82 115 127 140 146 121 103 121 120 116 117 119 121 122 121 121 124 130 129 123 118 112 110 110 107 101 91 81 69 60 51 37 35 38
339 351 24 330 346 82 31 352 19 61 97 111 113 117 114 109 114 119 121 121 124 125 128 127 126 126 133 136 134 127 118 114 113 112 107 96 85 70 70 57 44 28 12 30
12 17 27 32 59 83 65 66 76 103 115 115 117 119 122 123 124 125 126 126 127 129 131 134 135 135 137 140 138 126 122 123 121 116 100 89 87 71 47 27 24 17 10 7
132 128 125 118 115 112 101 96 95 99 113 118 123 126 128 128 130 130 129 130 131 134 138 142 141 140 138 138 133 124 127 125 123 113 105 106 98 85 67 2 9 12 14 13
133 165 162 137 135 134 124 113 110 108 114 119 122 127 131 133 134 134 134 135 137 141 142 142 141 140 138 138 134 135 135 136 117 109 119 133 87 62 51 55 37 15 40 29
172 183 204 136 156 157 141 133 128 124 125 127 127 127 131 133 135 135 135 136 138 139 138 139 140 138 138 141 139 138 145 152 148 165 263 344 34 45 5 88 119 80 44 85
Height
1502 1498 1492 1489 1490 1488 1488 1487 1487 1485 1485 1486 1488 1491 1493 1494 1493 1494 1496 1497 1499 1502 1504 1505 1507 1509 1511 1514 1516 1519 1523 1526 1530 1533 1536 1540 1543 1546 1548 1551 1552 1554 1555 1556
1498 1493 1489 1489 1491 1492 1491 1490 1487 1485 1485 1486 1489 1493 1495 1497 1498 1500 1500 1501 1502 1503 1504 1505 1506 1508 1509 1512 1514 1517 1520 1523 1526 1529 1533 1537 1540 1543 1545 1547 1549 1550 1551 1552
1491 1487 1489 1491 1491 1492 1489 1487 1484 1485 1484 1484 1487 1494 1496 1499 1501 1503 1504 1504 1504 1504 1505 1506 1506 1507 1508 1510 1512 1514 1517 1520 1523 1526 1529 1533 1535 1538 1542 1543 1544 1546 1548 1548
1487 1486 1489 1489 1488 1488 1487 1482 1483 1485 1485 1481 1482 1490 1495 1498 1502 1505 1507 1507 1507 1507 1507 1506 1507 1507 1507 1509 1510 1512 1515 1517 1520 1522 1525 1528 1531 1535 1538 1540 1542 1543 1544 1545
1485 1485 1487 1487 1484 1484 1481 1480 1481 1481 1480 1480 1480 1482 1493 1495 1501 1507 1510 1511 1510 1510 1508 1508 1507 1507 1508 1508 1509 1510 1513 1515 1517 1520 1523 1526 1529 1533 1535 1537 1538 1540 1541 1541
1483 1484 1484 1482 1481 1482 1481 1481 1480 1479 1477 1486 1478 1481 1493 1493 1500 1509 1513 1514 1513 1512 1511 1510 1509 1509 1508 1509 1509 1510 1512 1514 1516 1518 1521 1523 1526 1530 1532 1534 1535 1537 1539 1539
1483 1480 1481 1482 1481 1481 1481 1483 1487 1487 1485 1480 1475 1481 1498 1501 1505 1510 1514 1516 1516 1515 1514 1513 1512 1510 1510 1510 1510 1511 1512 1514 1516 1517 1520 1522 1525 1528 1530 1531 1532 1534 1537 1538
1484 1483 1480 1481 1480 1478 1478 1477 1482 1485 1480 1475 1477 1487 1505 1506 1510 1513 1516 1518 1518 1518 1517 1516 1515 1514 1513 1513 1513 1513 1514 1515 1517 1518 1520 1522 1525 1527 1528 1530 1532 1534 1536 1537
1484 1483 1479 1480 1480 1477 1475 1474 1468 1472 1470 1477 1481 1496 1507 1509 1512 1515 1518 1520 1521 1521 1521 1520 1519 1518 1517 1516 1516 1516 1517 1518 1519 1520 1522 1524 1526 1527 1529 1531 1532 1535 1536 1538
1485 1487 1479 1479 1478 1478 1474 1471 1474 1475 1482 1484 1487 1490 1496 1506 1511 1515 1519 1521 1523 1524 1524 1523 1523 1522 1521 1521 1520 1521 1521 1522 1523 1524 1526 1527 1529 1530 1531 1533 1534 1536 1539 1540
1486 1487 1482 1479 1479 1477 1477 1476 1474 1470 1469 1476 1485 1491 1487 1497 1507 1514 1519 1523 1525 1526 1526 1527 1526 1526 1526 1525 1525 1525 1526 1526 1527 1528 1530 1531 1533 1535 1536 1537 1538 1540 1542 1544
1488 1485 1483 1482 1481 1480 1477 1478 1477 1480 1477 1472 1474 1498 1495 1498 1507 1514 1520 1524 1526 1528 1529 1530 1530 1530 1530 1530 1530 1530 1531 1531 1532 1533 1534 1536 1537 1539 1540 1541 1543 1544 1546 1547
1489 1489 1489 1487 1487 1482 1481 1481 1478 1476 1475 1475 1478 1500 1501 1505 1511 1517 1521 1525 1528 1530 1532 1532 1533 1534 1534 1534 1535 1535 1536 1537 1538 1539 1540 1541 1542 1543 1544 1546 1547 1548 1549 1550
1493 1489 1490 1493 1490 1485 1486 1485 1481 1478 1478 1478 1479 1495 1505 1509 1514 1520 1523 1527 1530 1532 1534 1535 1536 1537 1538 1539 1539 1540 1541 1542 1543 1544 1544 1545 1546 1547 1548 1550 1551 1551 1552 1552
1491 1490 1489 1490 1489 1488 1490 1489 1486 1486 1485 1486 1488 1494 1504 1510 1516 1520 1524 1528 1531 1534 1536 1538 1539 1540 1542 1543 1544 1545 1546 1547 1548 1548 1549 1549 1551 1551 1553 1553 1553 1554 1554 1554
1492 1492 1491 1493 1491 1490 1494 1495 1493 1494 1493 1493 1495 1504 1509 1513 1518 1522 1525 1528 1532 1535 1538 1540 1541 1543 1544 1546 1547 1548 1549 1550 1552 1552 1553 1554 1554 1555 1556 1556 1557 1556 1556 1556
1490 1492 1492 1493 1492 1492 1500 1503 1501 1502 1502 1501 1504 1510 1513 1516 1520 1523 1526 1529 1532 1535 1538 1541 1543 1545 1547 1549 1550 1551 1552 1554 1555 1556 1557 1558 1558 1559 1559 1560 1560 1559 1558 1558
1493 1492 1489 1489 1494 1504 1510 1505 1505 1505 1508 1508 1511 1514 1517 1520 1523 1525 1527 1530 1533 1536 1539 1542 1545 1547 1550 1552 1553 1554 1556 1557 1558 1559 1560 1561 1562 1562 1562 1562 1561 1560 1560 1559
1496 1493 1490 1490 1493 1501 1507 1506 1506 1507 1510 1513 1514 1517 1520 1523 1525 1529 1531 1532 1535 1538 1541 1544 1547 1549 1552 1554 1556 1557 1559 1560 1561 1562 1563 1564 1564 1564 1564 1564 1563 1562 1561 1559
1495 1493 1490 1492 1496 1503 1509 1508 1509 1510 1512 1517 1517 1519 1522 1523 1525 1533 1534 1536 1538 1541 1544 1547 1550 1552 1555 1557 1559 1560 1562 1563 1564 1565 1566 1566 1566 1566 1566 1565 1564 1562 1561 1560
1494 1494 1494 1495 1498 1502 1510 1510 1510 1510 1516 1518 1519 1521 1522 1524 1526 1533 1536 1538 1541 1544 1547 1550 1553 1555 1558 1560 1561 1563 1565 1566 1566 1567 1568 1568 1567 1567 1566 1565 1564 1563 1562 1560
1495 1495 1497 1497 1499 1509 1513 1510 1511 1517 1518 1519 1521 1522 1524 1526 1531 1535 1538 1541 1545 1548 1551 1553 1556 1558 1560 1562 1564 1565 1567 1568 1568 1569 1569 1569 1568 1568 1567 1566 1565 1564 1562 1561
1497 1500 1498 1503 1510 1515 1516 1516 1518 1519 1520 1522 1523 1525 1527 1530 1534 1538 1542 1545 1548 1551 1553 1556 1558 1560 1563 1565 1566 1567 1568 1569 1570 1570 1570 1570 1569 1568 1567 1567 1565 1564 1563 1562
1502 1505 1503 1507 1512 1517 1518 1519 1520 1521 1522 1524 1526 1528 1531 1534 1538 1541 1545 1548 1551 1554 1556 1558 1561 1563 1565 1566 1568 1569 1570 1570 1571 1571 1570 1570 1569 1569 1568 1567 1566 1565 1564 1562
1499 1503 1503 1507 1514 1518 1520 1521 1523 1524 1525 1527 1530 1532 1535 1537 1541 1544 1548 1551 1554 1556 1559 1561 1563 1565 1567 1568 1569 1570 1571 1571 1571 1571 1571 1570 1570 1569 1568 1567 1566 1565 1563 1562
1500 1501 1501 1502 1510 1513 1519 1523 1524 1526 1528 1530 1532 1536 1539 1541 1544 1548 1551 1554 1557 1559 1561 1564 1565 1567 1568 1570 1571 1571 1572 1572 1572 1571 1571 1570 1570 1569 1568 1567 1566 1564 1563 1561